QPF
0.00 0.00 0.00 0.00 0.00 0.00 0.00 0.00 0.00 0.00 0.00 0.00 0.00 0.00 0.00 0.00 0.00 0.00 0.00 0.00 0.00 0.00 0.00 0.01 0.00 0.00 0.00 0.00 0.00 0.00 0.00 0.00 0.01 0.02 0.02 0.03 0.03 0.04 0.06 0.10 0.14 0.17 0.18 0.19
0.00 0.00 0.00 0.00 0.00 0.00 0.00 0.00 0.00 0.00 0.00 0.00 0.00 0.00 0.00 0.00 0.00 0.00 0.00 0.00 0.00 0.00 0.00 0.01 0.01 0.01 0.01 0.00 0.00 0.00 0.01 0.03 0.03 0.05 0.11 0.16 0.22 0.24 0.27 0.34 0.37 0.37 0.36 0.34
0.00 0.00 0.00 0.00 0.00 0.00 0.00 0.00 0.00 0.00 0.00 0.00 0.00 0.00 0.00 0.00 0.00 0.00 0.00 0.00 0.00 0.00 0.01 0.01 0.01 0.02 0.02 0.02 0.01 0.02 0.03 0.06 0.08 0.13 0.24 0.34 0.44 0.52 0.63 0.71 0.73 0.70 0.66 0.60
0.00 0.00 0.00 0.00 0.00 0.00 0.00 0.00 0.00 0.00 0.00 0.00 0.00 0.00 0.00 0.00 0.00 0.00 0.00 0.00 0.00 0.00 0.00 0.01 0.01 0.02 0.02 0.03 0.04 0.04 0.06 0.10 0.14 0.22 0.37 0.52 0.64 0.75 0.87 0.98 1.00 0.94 0.85 0.70
0.00 0.00 0.00 0.00 0.00 0.00 0.00 0.00 0.00 0.00 0.00 0.00 0.00 0.00 0.00 0.00 0.00 0.00 0.00 0.00 0.00 0.00 0.00 0.00 0.01 0.02 0.02 0.02 0.03 0.04 0.05 0.09 0.14 0.21 0.36 0.57 0.70 0.79 0.85 0.87 0.88 0.85 0.76 0.64
0.00 0.00 0.00 0.00 0.00 0.00 0.00 0.00 0.00 0.00 0.00 0.00 0.00 0.00 0.00 0.00 0.00 0.00 0.00 0.00 0.00 0.00 0.00 0.00 0.00 0.00 0.01 0.01 0.02 0.02 0.03 0.06 0.10 0.15 0.26 0.41 0.50 0.56 0.58 0.57 0.55 0.54 0.49 0.38
0.00 0.00 0.00 0.00 0.00 0.00 0.00 0.00 0.00 0.00 0.00 0.00 0.00 0.00 0.00 0.00 0.00 0.00 0.00 0.00 0.00 0.00 0.00 0.00 0.00 0.00 0.00 0.00 0.00 0.01 0.02 0.04 0.08 0.13 0.19 0.26 0.31 0.34 0.35 0.38 0.38 0.37 0.32 0.24
0.00 0.00 0.00 0.00 0.00 0.00 0.00 0.00 0.00 0.00 0.00 0.00 0.00 0.00 0.00 0.00 0.00 0.00 0.00 0.00 0.00 0.00 0.00 0.00 0.00 0.00 0.00 0.00 0.00 0.01 0.01 0.04 0.07 0.10 0.14 0.18 0.24 0.26 0.24 0.23 0.20 0.19 0.18 0.16
0.00 0.00 0.00 0.00 0.00 0.00 0.00 0.00 0.00 0.00 0.00 0.00 0.00 0.00 0.00 0.00 0.00 0.00 0.00 0.00 0.00 0.00 0.00 0.00 0.00 0.00 0.00 0.00 0.00 0.01 0.02 0.05 0.09 0.13 0.16 0.16 0.18 0.18 0.15 0.12 0.10 0.08 0.07 0.06
0.00 0.00 0.00 0.00 0.00 0.00 0.00 0.00 0.00 0.00 0.00 0.00 0.00 0.00 0.00 0.00 0.00 0.00 0.00 0.00 0.00 0.00 0.00 0.00 0.00 0.00 0.00 0.00 0.00 0.01 0.03 0.06 0.09 0.13 0.18 0.22 0.22 0.19 0.12 0.08 0.05 0.04 0.03 0.02
0.00 0.00 0.00 0.00 0.00 0.00 0.00 0.00 0.00 0.00 0.00 0.00 0.00 0.00 0.00 0.00 0.00 0.00 0.00 0.00 0.00 0.00 0.00 0.00 0.00 0.00 0.00 0.00 0.01 0.03 0.06 0.10 0.15 0.19 0.24 0.27 0.27 0.23 0.16 0.09 0.06 0.03 0.02 0.02
0.00 0.00 0.00 0.00 0.00 0.00 0.00 0.00 0.00 0.00 0.00 0.00 0.00 0.00 0.00 0.00 0.00 0.00 0.00 0.00 0.00 0.00 0.00 0.00 0.00 0.00 0.00 0.01 0.03 0.06 0.11 0.17 0.27 0.39 0.50 0.54 0.48 0.37 0.25 0.14 0.07 0.04 0.03 0.02
0.00 0.00 0.00 0.00 0.00 0.00 0.00 0.00 0.00 0.00 0.00 0.00 0.00 0.00 0.00 0.00 0.00 0.00 0.00 0.00 0.00 0.00 0.00 0.00 0.00 0.00 0.00 0.02 0.04 0.10 0.19 0.28 0.38 0.51 0.71 0.84 0.79 0.62 0.39 0.20 0.08 0.03 0.02 0.01
0.00 0.00 0.00 0.00 0.00 0.00 0.00 0.00 0.00 0.00 0.00 0.00 0.00 0.00 0.00 0.00 0.00 0.00 0.00 0.00 0.00 0.00 0.00 0.00 0.00 0.00 0.00 0.03 0.08 0.19 0.31 0.36 0.43 0.53 0.66 0.71 0.63 0.47 0.33 0.18 0.07 0.02 0.01 0.00
0.00 0.00 0.00 0.00 0.00 0.00 0.00 0.00 0.00 0.00 0.00 0.00 0.00 0.00 0.00 0.00 0.00 0.00 0.00 0.00 0.00 0.00 0.00 0.00 0.00 0.00 0.01 0.02 0.09 0.18 0.19 0.17 0.22 0.31 0.34 0.37 0.31 0.22 0.14 0.08 0.04 0.01 0.01 0.00
0.00 0.00 0.00 0.00 0.00 0.00 0.00 0.00 0.00 0.00 0.00 0.00 0.00 0.00 0.00 0.00 0.00 0.00 0.00 0.00 0.00 0.00 0.00 0.00 0.00 0.00 0.00 0.02 0.05 0.06 0.05 0.06 0.09 0.14 0.16 0.17 0.18 0.14 0.09 0.06 0.02 0.01 0.00 0.00
0.00 0.00 0.00 0.00 0.00 0.00 0.00 0.00 0.00 0.00 0.00 0.00 0.00 0.00 0.00 0.00 0.00 0.00 0.00 0.00 0.00 0.00 0.00 0.00 0.00 0.00 0.00 0.01 0.01 0.02 0.01 0.02 0.05 0.09 0.11 0.12 0.13 0.12 0.10 0.05 0.04 0.02 0.01 0.00
0.00 0.00 0.00 0.00 0.00 0.00 0.00 0.00 0.00 0.00 0.00 0.00 0.00 0.00 0.00 0.00 0.00 0.00 0.00 0.00 0.00 0.00 0.00 0.00 0.00 0.00 0.00 0.00 0.00 0.01 0.01 0.02 0.04 0.07 0.09 0.09 0.09 0.09 0.08 0.06 0.06 0.04 0.02 0.01
0.00 0.00 0.00 0.00 0.00 0.00 0.00 0.00 0.00 0.00 0.00 0.00 0.00 0.00 0.00 0.00 0.00 0.00 0.00 0.00 0.00 0.00 0.00 0.00 0.00 0.00 0.00 0.00 0.00 0.01 0.01 0.01 0.02 0.05 0.08 0.08 0.07 0.06 0.07 0.07 0.06 0.04 0.03 0.01
0.00 0.00 0.00 0.00 0.00 0.00 0.00 0.00 0.00 0.00 0.00 0.00 0.00 0.00 0.00 0.00 0.00 0.00 0.00 0.00 0.00 0.00 0.00 0.00 0.00 0.00 0.00 0.00 0.00 0.00 0.00 0.01 0.02 0.04 0.06 0.07 0.06 0.05 0.05 0.05 0.04 0.03 0.02 0.01
0.00 0.00 0.00 0.00 0.00 0.00 0.00 0.00 0.00 0.00 0.00 0.00 0.00 0.00 0.00 0.00 0.00 0.00 0.00 0.00 0.00 0.00 0.00 0.00 0.00 0.00 0.00 0.00 0.00 0.00 0.00 0.01 0.02 0.03 0.05 0.05 0.03 0.03 0.03 0.03 0.03 0.02 0.01 0.00
0.00 0.00 0.00 0.00 0.00 0.00 0.00 0.00 0.00 0.00 0.00 0.00 0.00 0.00 0.00 0.00 0.00 0.00 0.00 0.00 0.00 0.00 0.00 0.00 0.00 0.00 0.00 0.00 0.00 0.00 0.00 0.01 0.01 0.02 0.04 0.04 0.03 0.01 0.01 0.01 0.01 0.01 0.00 0.00
0.00 0.00 0.00 0.00 0.00 0.00 0.00 0.00 0.00 0.00 0.00 0.00 0.00 0.00 0.00 0.00 0.00 0.00 0.00 0.00 0.00 0.00 0.00 0.00 0.00 0.00 0.00 0.00 0.00 0.00 0.01 0.01 0.01 0.02 0.03 0.03 0.02 0.01 0.01 0.01 0.01 0.01 0.01 0.00
0.00 0.00 0.00 0.00 0.00 0.00 0.00 0.00 0.00 0.00 0.00 0.00 0.00 0.00 0.00 0.00 0.00 0.00 0.00 0.00 0.00 0.00 0.00 0.00 0.00 0.00 0.00 0.00 0.00 0.00 0.01 0.01 0.01 0.02 0.03 0.02 0.01 0.01 0.01 0.02 0.02 0.01 0.01 0.00
0.00 0.00 0.01 0.01 0.01 0.01 0.01 0.01 0.00 0.00 0.00 0.00 0.00 0.01 0.01 0.00 0.00 0.00 0.00 0.00 0.00 0.00 0.00 0.00 0.00 0.00 0.00 0.00 0.00 0.00 0.01 0.01 0.02 0.02 0.02 0.01 0.01 0.01 0.01 0.01 0.02 0.02 0.03 0.01
0.00 0.01 0.03 0.04 0.04 0.04 0.03 0.01 0.00 0.00 0.00 0.01 0.01 0.01 0.01 0.01 0.01 0.01 0.01 0.01 0.00 0.00 0.00 0.00 0.00 0.00 0.00 0.00 0.00 0.00 0.00 0.01 0.01 0.02 0.01 0.01 0.00 0.01 0.01 0.01 0.00 0.00 0.01 0.00
MSLP
1013.32 1013.62 1013.82 1013.92 1013.95 1013.91 1013.84 1013.73 1013.59 1013.41 1013.18 1012.89 1012.55 1012.19 1011.82 1011.47 1011.18 1010.96 1010.80 1010.70 1010.63 1010.57 1010.49 1010.39 1010.28 1010.16 1010.08 1010.06 1010.12 1010.26 1010.49 1010.77 1011.09 1011.41 1011.72 1011.99 1012.23 1012.44 1012.63 1012.81 1012.98 1013.13 1013.26 1013.34
1013.58 1013.83 1013.97 1014.04 1014.04 1014.01 1013.95 1013.87 1013.77 1013.63 1013.43 1013.17 1012.87 1012.53 1012.19 1011.88 1011.62 1011.44 1011.31 1011.24 1011.18 1011.11 1011.01 1010.85 1010.66 1010.46 1010.28 1010.16 1010.12 1010.18 1010.34 1010.57 1010.86 1011.17 1011.47 1011.74 1011.98 1012.20 1012.40 1012.58 1012.76 1012.93 1013.06 1013.16
1013.76 1013.94 1014.04 1014.07 1014.07 1014.05 1014.02 1013.99 1013.93 1013.82 1013.65 1013.41 1013.11 1012.77 1012.43 1012.13 1011.89 1011.73 1011.64 1011.60 1011.58 1011.54 1011.44 1011.29 1011.07 1010.82 1010.58 1010.38 1010.26 1010.24 1010.32 1010.48 1010.71 1010.96 1011.22 1011.45 1011.67 1011.86 1012.05 1012.23 1012.41 1012.59 1012.74 1012.87
1013.86 1013.97 1014.02 1014.04 1014.05 1014.07 1014.09 1014.12 1014.11 1014.04 1013.89 1013.65 1013.33 1012.96 1012.59 1012.26 1012.00 1011.83 1011.76 1011.75 1011.77 1011.77 1011.72 1011.60 1011.40 1011.16 1010.89 1010.65 1010.47 1010.37 1010.37 1010.45 1010.58 1010.76 1010.94 1011.11 1011.27 1011.42 1011.58 1011.74 1011.92 1012.11 1012.29 1012.45
1013.91 1013.96 1013.97 1013.99 1014.03 1014.10 1014.20 1014.30 1014.36 1014.33 1014.20 1013.94 1013.59 1013.16 1012.72 1012.32 1012.00 1011.79 1011.70 1011.70 1011.75 1011.80 1011.81 1011.74 1011.59 1011.37 1011.12 1010.86 1010.65 1010.49 1010.41 1010.40 1010.45 1010.53 1010.62 1010.71 1010.81 1010.91 1011.03 1011.17 1011.34 1011.54 1011.75 1011.94
1013.92 1013.91 1013.91 1013.94 1014.03 1014.18 1014.37 1014.55 1014.68 1014.70 1014.58 1014.31 1013.90 1013.40 1012.87 1012.37 1011.96 1011.67 1011.53 1011.50 1011.56 1011.64 1011.69 1011.68 1011.60 1011.43 1011.21 1010.96 1010.73 1010.53 1010.39 1010.31 1010.27 1010.27 1010.28 1010.30 1010.33 1010.38 1010.46 1010.58 1010.74 1010.94 1011.17 1011.38
1013.93 1013.87 1013.86 1013.92 1014.06 1014.29 1014.57 1014.84 1015.04 1015.12 1015.02 1014.73 1014.27 1013.69 1013.05 1012.44 1011.91 1011.53 1011.30 1011.22 1011.25 1011.33 1011.42 1011.46 1011.42 1011.31 1011.13 1010.91 1010.68 1010.47 1010.30 1010.17 1010.07 1010.01 1009.96 1009.92 1009.91 1009.92 1009.96 1010.06 1010.21 1010.41 1010.63 1010.86
1013.92 1013.84 1013.83 1013.92 1014.12 1014.42 1014.77 1015.12 1015.39 1015.51 1015.43 1015.13 1014.63 1013.97 1013.24 1012.52 1011.88 1011.39 1011.07 1010.91 1010.89 1010.95 1011.05 1011.11 1011.12 1011.06 1010.92 1010.74 1010.53 1010.33 1010.15 1010.00 1009.88 1009.78 1009.71 1009.65 1009.62 1009.61 1009.63 1009.71 1009.84 1010.01 1010.22 1010.44
1013.91 1013.83 1013.83 1013.95 1014.18 1014.53 1014.94 1015.34 1015.64 1015.79 1015.72 1015.41 1014.89 1014.19 1013.39 1012.58 1011.85 1011.26 1010.85 1010.62 1010.54 1010.57 1010.65 1010.72 1010.76 1010.72 1010.63 1010.48 1010.31 1010.13 1009.97 1009.84 1009.73 1009.65 1009.59 1009.54 1009.51 1009.50 1009.53 1009.59 1009.69 1009.83 1010.00 1010.18
1013.92 1013.84 1013.86 1013.99 1014.24 1014.60 1015.02 1015.42 1015.73 1015.88 1015.81 1015.50 1014.96 1014.24 1013.42 1012.57 1011.78 1011.14 1010.66 1010.37 1010.24 1010.22 1010.28 1010.35 1010.39 1010.38 1010.32 1010.21 1010.08 1009.94 1009.82 1009.73 1009.66 1009.63 1009.61 1009.61 1009.61 1009.63 1009.66 1009.71 1009.79 1009.89 1010.00 1010.12
1013.95 1013.89 1013.92 1014.05 1014.28 1014.60 1014.98 1015.34 1015.61 1015.73 1015.64 1015.32 1014.78 1014.07 1013.26 1012.41 1011.63 1010.97 1010.47 1010.15 1009.98 1009.94 1009.98 1010.04 1010.09 1010.09 1010.06 1009.98 1009.89 1009.80 1009.72 1009.69 1009.68 1009.71 1009.76 1009.82 1009.88 1009.94 1009.99 1010.05 1010.10 1010.15 1010.21 1010.26
1014.02 1014.00 1014.02 1014.12 1014.30 1014.55 1014.83 1015.10 1015.28 1015.33 1015.20 1014.86 1014.34 1013.66 1012.89 1012.09 1011.35 1010.73 1010.25 1009.94 1009.77 1009.72 1009.75 1009.80 1009.85 1009.87 1009.85 1009.81 1009.75 1009.70 1009.68 1009.70 1009.76 1009.85 1009.97 1010.10 1010.22 1010.33 1010.42 1010.48 1010.52 1010.55 1010.55 1010.54
1014.14 1014.15 1014.17 1014.22 1014.32 1014.45 1014.60 1014.73 1014.79 1014.73 1014.54 1014.18 1013.67 1013.03 1012.33 1011.61 1010.95 1010.40 1009.98 1009.71 1009.57 1009.53 1009.57 1009.63 1009.68 1009.71 1009.72 1009.69 1009.66 1009.65 1009.66 1009.73 1009.83 1009.98 1010.16 1010.35 1010.53 1010.69 1010.82 1010.91 1010.96 1010.96 1010.94 1010.89
1014.32 1014.35 1014.34 1014.33 1014.32 1014.32 1014.31 1014.28 1014.19 1014.02 1013.74 1013.35 1012.84 1012.26 1011.63 1011.01 1010.45 1009.99 1009.65 1009.43 1009.34 1009.34 1009.39 1009.47 1009.54 1009.59 1009.61 1009.60 1009.59 1009.60 1009.64 1009.72 1009.86 1010.04 1010.25 1010.48 1010.71 1010.92 1011.09 1011.21 1011.28 1011.30 1011.28 1011.23
1014.52 1014.55 1014.51 1014.42 1014.30 1014.16 1013.99 1013.80 1013.56 1013.27 1012.91 1012.47 1011.97 1011.43 1010.88 1010.35 1009.89 1009.52 1009.26 1009.11 1009.07 1009.10 1009.19 1009.29 1009.38 1009.45 1009.49 1009.50 1009.51 1009.52 1009.57 1009.65 1009.79 1009.97 1010.19 1010.44 1010.69 1010.93 1011.14 1011.30 1011.42 1011.49 1011.51 1011.49
1014.69 1014.70 1014.62 1014.46 1014.24 1013.97 1013.66 1013.33 1012.97 1012.57 1012.13 1011.66 1011.16 1010.65 1010.15 1009.70 1009.32 1009.02 1008.83 1008.74 1008.73 1008.80 1008.92 1009.04 1009.16 1009.26 1009.32 1009.35 1009.37 1009.39 1009.43 1009.50 1009.61 1009.77 1009.97 1010.20 1010.46 1010.72 1010.96 1011.17 1011.35 1011.48 1011.57 1011.63
1014.78 1014.75 1014.62 1014.40 1014.10 1013.74 1013.34 1012.90 1012.45 1011.98 1011.49 1010.99 1010.49 1010.00 1009.54 1009.13 1008.79 1008.54 1008.38 1008.32 1008.34 1008.43 1008.56 1008.71 1008.86 1008.98 1009.08 1009.14 1009.18 1009.20 1009.23 1009.28 1009.35 1009.47 1009.63 1009.83 1010.07 1010.33 1010.60 1010.86 1011.10 1011.32 1011.50 1011.65
1014.72 1014.64 1014.47 1014.22 1013.88 1013.48 1013.03 1012.55 1012.05 1011.54 1011.03 1010.51 1010.01 1009.53 1009.08 1008.68 1008.36 1008.11 1007.95 1007.88 1007.89 1007.98 1008.11 1008.28 1008.45 1008.61 1008.75 1008.85 1008.92 1008.97 1008.99 1009.02 1009.07 1009.14 1009.25 1009.41 1009.61 1009.85 1010.13 1010.43 1010.74 1011.04 1011.33 1011.59
1014.50 1014.40 1014.21 1013.95 1013.61 1013.21 1012.77 1012.30 1011.80 1011.29 1010.77 1010.26 1009.75 1009.26 1008.80 1008.38 1008.03 1007.74 1007.54 1007.43 1007.41 1007.46 1007.59 1007.76 1007.96 1008.16 1008.34 1008.50 1008.62 1008.70 1008.75 1008.78 1008.80 1008.84 1008.90 1009.01 1009.18 1009.40 1009.68 1010.01 1010.37 1010.75 1011.13 1011.50
1014.20 1014.08 1013.90 1013.67 1013.37 1013.02 1012.62 1012.19 1011.72 1011.23 1010.73 1010.21 1009.69 1009.18 1008.69 1008.22 1007.81 1007.46 1007.18 1007.00 1006.91 1006.92 1007.01 1007.18 1007.39 1007.63 1007.87 1008.09 1008.28 1008.42 1008.51 1008.56 1008.59 1008.61 1008.65 1008.73 1008.85 1009.05 1009.32 1009.66 1010.06 1010.50 1010.96 1011.42
1013.90 1013.81 1013.68 1013.50 1013.27 1012.99 1012.65 1012.27 1011.84 1011.38 1010.89 1010.36 1009.82 1009.27 1008.72 1008.19 1007.69 1007.25 1006.88 1006.60 1006.43 1006.37 1006.41 1006.55 1006.77 1007.04 1007.34 1007.63 1007.89 1008.11 1008.27 1008.38 1008.44 1008.48 1008.51 1008.57 1008.67 1008.85 1009.10 1009.45 1009.86 1010.35 1010.86 1011.39
1013.75 1013.72 1013.67 1013.57 1013.42 1013.20 1012.93 1012.59 1012.19 1011.73 1011.23 1010.68 1010.10 1009.49 1008.87 1008.25 1007.66 1007.12 1006.64 1006.26 1005.98 1005.83 1005.81 1005.92 1006.12 1006.41 1006.75 1007.11 1007.46 1007.76 1008.01 1008.19 1008.32 1008.39 1008.45 1008.51 1008.61 1008.77 1009.01 1009.35 1009.78 1010.28 1010.83 1011.41
1013.89 1013.96 1013.99 1013.98 1013.89 1013.73 1013.48 1013.15 1012.74 1012.26 1011.72 1011.12 1010.47 1009.79 1009.09 1008.38 1007.69 1007.04 1006.46 1005.97 1005.59 1005.35 1005.25 1005.29 1005.47 1005.76 1006.12 1006.53 1006.95 1007.34 1007.68 1007.96 1008.16 1008.30 1008.40 1008.49 1008.60 1008.77 1009.01 1009.33 1009.76 1010.26 1010.84 1011.44
1014.40 1014.58 1014.70 1014.75 1014.70 1014.54 1014.28 1013.91 1013.44 1012.90 1012.28 1011.60 1010.87 1010.12 1009.33 1008.54 1007.77 1007.02 1006.34 1005.75 1005.27 1004.92 1004.73 1004.70 1004.83 1005.09 1005.45 1005.89 1006.36 1006.83 1007.25 1007.62 1007.91 1008.13 1008.30 1008.44 1008.58 1008.76 1009.00 1009.33 1009.75 1010.25 1010.83 1011.45
1015.26 1015.54 1015.73 1015.80 1015.74 1015.54 1015.21 1014.75 1014.19 1013.54 1012.82 1012.04 1011.24 1010.40 1009.55 1008.70 1007.85 1007.04 1006.28 1005.60 1005.02 1004.58 1004.29 1004.17 1004.22 1004.42 1004.75 1005.19 1005.68 1006.19 1006.69 1007.14 1007.51 1007.82 1008.07 1008.27 1008.47 1008.68 1008.93 1009.27 1009.68 1010.18 1010.76 1011.38
1016.36 1016.72 1016.93 1016.98 1016.85 1016.55 1016.10 1015.51 1014.81 1014.04 1013.21 1012.35 1011.47 1010.58 1009.68 1008.79 1007.92 1007.06 1006.25 1005.50 1004.84 1004.31 1003.92 1003.70 1003.66 1003.78 1004.05 1004.45 1004.93 1005.46 1006.00 1006.51 1006.96 1007.35 1007.67 1007.95 1008.20 1008.46 1008.74 1009.09 1009.51 1010.01 1010.58 1011.21
Thickness
5766 5764 5758 5761 5766 5764 5761 5761 5761 5767 5780 5779 5777 5778 5784 5791 5795 5795 5796 5797 5796 5795 5799 5800 5799 5799 5799 5797 5793 5791 5789 5788 5784 5781 5778 5774 5772 5771 5769 5765 5760 5754 5751 5749
5757 5753 5760 5764 5763 5760 5757 5754 5756 5764 5773 5770 5768 5771 5777 5778 5778 5779 5779 5779 5781 5784 5785 5786 5786 5787 5788 5787 5786 5784 5782 5782 5780 5778 5775 5773 5770 5767 5763 5757 5751 5745 5740 5736
5748 5753 5763 5759 5754 5754 5753 5751 5750 5751 5762 5769 5762 5763 5769 5771 5773 5772 5772 5771 5771 5770 5771 5773 5775 5775 5776 5776 5776 5776 5775 5775 5774 5773 5768 5764 5759 5754 5750 5747 5742 5736 5731 5725
5747 5755 5754 5752 5749 5750 5744 5752 5749 5748 5746 5750 5754 5741 5764 5767 5764 5762 5763 5763 5763 5763 5763 5762 5763 5762 5763 5764 5765 5765 5765 5764 5765 5763 5759 5754 5748 5743 5741 5739 5734 5728 5723 5717
5740 5747 5745 5741 5744 5746 5744 5748 5745 5744 5741 5741 5750 5741 5757 5760 5753 5753 5752 5752 5754 5754 5753 5751 5751 5751 5753 5754 5754 5754 5754 5754 5754 5752 5749 5744 5740 5738 5734 5730 5725 5718 5715 5710
5742 5750 5748 5745 5748 5746 5744 5740 5742 5741 5739 5726 5740 5733 5738 5756 5750 5745 5742 5743 5745 5745 5745 5743 5743 5743 5743 5744 5744 5743 5742 5741 5741 5739 5737 5733 5729 5726 5722 5718 5713 5709 5705 5703
5732 5741 5748 5748 5739 5740 5737 5725 5719 5720 5726 5729 5732 5723 5734 5743 5742 5737 5735 5736 5739 5739 5737 5736 5735 5733 5733 5733 5732 5731 5730 5728 5728 5726 5724 5721 5718 5714 5711 5708 5704 5700 5697 5695
5719 5721 5738 5741 5735 5727 5727 5719 5703 5692 5704 5717 5727 5721 5737 5739 5738 5735 5733 5732 5732 5732 5732 5730 5729 5728 5727 5725 5723 5722 5719 5716 5715 5712 5709 5707 5705 5702 5700 5697 5695 5692 5690 5690
5723 5720 5735 5736 5738 5732 5722 5720 5719 5703 5707 5704 5720 5731 5735 5734 5729 5729 5728 5727 5726 5726 5725 5724 5724 5722 5720 5717 5715 5711 5707 5704 5701 5698 5695 5692 5690 5687 5685 5683 5682 5682 5681 5682
5732 5718 5732 5732 5733 5728 5727 5722 5711 5701 5687 5692 5712 5721 5722 5722 5721 5724 5723 5721 5721 5721 5720 5718 5716 5713 5710 5707 5704 5700 5695 5690 5685 5681 5678 5676 5674 5671 5668 5667 5667 5667 5668 5670
5733 5717 5723 5726 5721 5721 5719 5714 5707 5704 5696 5685 5690 5711 5731 5723 5720 5717 5716 5717 5716 5714 5713 5711 5708 5704 5700 5697 5692 5686 5680 5674 5667 5662 5658 5656 5655 5653 5652 5650 5651 5652 5654 5656
5728 5721 5713 5723 5729 5723 5716 5710 5704 5686 5684 5690 5685 5699 5734 5723 5716 5711 5709 5710 5710 5707 5706 5704 5700 5696 5692 5686 5680 5673 5667 5659 5651 5644 5641 5638 5637 5636 5634 5633 5635 5638 5641 5644
5720 5707 5698 5708 5712 5712 5708 5710 5703 5696 5687 5684 5681 5696 5723 5715 5710 5709 5706 5703 5700 5698 5697 5695 5692 5687 5682 5676 5669 5662 5655 5647 5640 5634 5629 5625 5622 5621 5620 5618 5621 5625 5629 5633
5716 5707 5698 5693 5704 5712 5707 5707 5701 5689 5680 5684 5689 5696 5706 5705 5702 5701 5699 5695 5692 5690 5688 5686 5682 5678 5673 5666 5660 5653 5646 5639 5633 5628 5623 5617 5613 5612 5611 5610 5612 5616 5621 5625
5711 5703 5707 5710 5713 5711 5706 5703 5701 5693 5689 5681 5688 5690 5695 5697 5695 5693 5689 5685 5682 5682 5681 5678 5675 5670 5665 5659 5652 5646 5640 5634 5629 5624 5620 5616 5613 5609 5609 5607 5608 5611 5616 5619
5706 5697 5700 5701 5707 5707 5702 5703 5701 5698 5696 5691 5688 5688 5699 5700 5693 5686 5682 5679 5676 5675 5674 5672 5668 5663 5658 5653 5647 5641 5637 5632 5627 5624 5620 5618 5614 5611 5609 5607 5607 5609 5611 5613
5706 5694 5689 5694 5705 5697 5692 5703 5701 5700 5702 5695 5686 5691 5697 5690 5686 5681 5678 5675 5673 5671 5670 5666 5663 5659 5654 5649 5644 5638 5634 5631 5627 5624 5622 5619 5615 5612 5609 5607 5606 5606 5607 5607
5696 5689 5686 5690 5688 5674 5701 5713 5704 5694 5696 5696 5693 5692 5688 5684 5683 5680 5676 5671 5669 5667 5665 5662 5659 5655 5651 5647 5642 5636 5633 5630 5626 5624 5622 5620 5616 5612 5608 5605 5604 5603 5603 5603
5695 5686 5686 5684 5679 5684 5698 5698 5690 5681 5680 5689 5682 5678 5678 5679 5675 5679 5682 5673 5667 5664 5661 5659 5656 5653 5649 5644 5639 5634 5631 5629 5627 5625 5622 5620 5617 5613 5609 5605 5603 5601 5600 5599
5687 5683 5679 5678 5664 5663 5685 5686 5687 5677 5670 5680 5674 5668 5668 5666 5659 5668 5673 5669 5665 5660 5657 5654 5653 5649 5645 5641 5636 5631 5629 5628 5626 5625 5622 5620 5617 5614 5610 5606 5603 5600 5597 5595
5683 5679 5674 5670 5666 5676 5685 5682 5677 5655 5659 5666 5664 5662 5660 5658 5657 5663 5666 5664 5660 5656 5653 5650 5648 5644 5641 5638 5633 5629 5628 5627 5626 5625 5621 5618 5616 5613 5609 5604 5600 5597 5594 5591
5676 5674 5668 5661 5651 5659 5673 5666 5650 5646 5652 5654 5655 5656 5656 5657 5660 5661 5661 5659 5655 5650 5648 5645 5642 5640 5638 5636 5631 5627 5626 5627 5625 5623 5620 5617 5613 5612 5607 5602 5598 5595 5591 5587
5673 5672 5662 5654 5655 5664 5659 5648 5641 5638 5636 5639 5642 5647 5649 5650 5653 5654 5655 5654 5652 5648 5645 5642 5639 5637 5635 5633 5630 5627 5627 5625 5623 5621 5618 5615 5612 5609 5606 5601 5596 5593 5589 5590
5674 5667 5656 5650 5655 5650 5642 5632 5626 5623 5622 5624 5626 5630 5633 5636 5642 5645 5646 5647 5647 5646 5642 5639 5635 5634 5632 5630 5628 5626 5625 5623 5620 5618 5615 5612 5609 5607 5604 5601 5597 5595 5592 5590
5656 5651 5642 5636 5633 5624 5620 5609 5606 5606 5608 5610 5612 5613 5616 5619 5624 5628 5632 5637 5640 5641 5638 5635 5632 5631 5631 5628 5626 5624 5623 5619 5617 5615 5612 5610 5608 5606 5602 5599 5596 5594 5592 5591
5621 5613 5607 5601 5588 5586 5587 5586 5587 5587 5589 5592 5596 5601 5603 5604 5606 5610 5615 5621 5626 5631 5632 5630 5629 5628 5628 5625 5623 5622 5620 5616 5614 5612 5610 5609 5607 5604 5601 5597 5591 5581 5583 5578